QPF
0.00 0.00 0.00 0.00 0.00 0.00 0.00 0.00 0.00 0.00 0.00 0.00 0.00 0.00 0.00 0.00 0.00 0.00 0.00 0.00 0.00 0.00 0.00 0.00 0.00 0.00 0.00 0.00 0.00 0.00 0.00 0.00 0.00 0.00 0.00 0.00 0.00 0.00 0.01 0.02 0.04 0.06 0.04
0.00 0.00 0.00 0.00 0.00 0.00 0.00 0.00 0.00 0.00 0.00 0.00 0.00 0.00 0.00 0.00 0.00 0.00 0.00 0.00 0.00 0.00 0.00 0.00 0.00 0.00 0.00 0.00 0.00 0.00 0.00 0.00 0.00 0.00 0.00 0.00 0.00 0.00 0.00 0.01 0.03 0.05 0.07
0.00 0.00 0.00 0.00 0.00 0.00 0.00 0.00 0.00 0.00 0.00 0.00 0.00 0.00 0.00 0.00 0.00 0.00 0.00 0.00 0.00 0.00 0.00 0.00 0.00 0.00 0.00 0.00 0.00 0.00 0.00 0.00 0.00 0.00 0.00 0.00 0.00 0.00 0.00 0.00 0.00 0.01 0.03
0.00 0.00 0.00 0.00 0.00 0.00 0.00 0.00 0.00 0.00 0.00 0.00 0.00 0.00 0.00 0.00 0.00 0.00 0.00 0.00 0.00 0.00 0.00 0.00 0.00 0.00 0.00 0.00 0.00 0.00 0.00 0.00 0.00 0.00 0.00 0.00 0.00 0.00 0.00 0.00 0.00 0.00 0.00
0.00 0.00 0.00 0.00 0.00 0.00 0.00 0.00 0.00 0.00 0.00 0.00 0.00 0.00 0.00 0.00 0.00 0.00 0.00 0.00 0.00 0.00 0.00 0.00 0.00 0.00 0.00 0.00 0.00 0.00 0.00 0.00 0.00 0.00 0.00 0.02 0.02 0.01 0.01 0.01 0.00 0.00 0.00
0.00 0.00 0.00 0.00 0.00 0.00 0.00 0.00 0.00 0.00 0.00 0.00 0.00 0.00 0.00 0.00 0.00 0.00 0.00 0.00 0.00 0.00 0.00 0.00 0.00 0.00 0.00 0.00 0.00 0.00 0.00 0.00 0.00 0.00 0.02 0.03 0.01 0.00 0.00 0.00 0.00 0.00 0.00
0.00 0.00 0.00 0.00 0.00 0.00 0.00 0.00 0.00 0.00 0.00 0.00 0.00 0.00 0.00 0.00 0.00 0.00 0.00 0.00 0.00 0.00 0.00 0.00 0.00 0.00 0.00 0.00 0.00 0.00 0.00 0.00 0.00 0.01 0.01 0.02 0.01 0.01 0.01 0.01 0.00 0.00 0.01
0.00 0.00 0.00 0.00 0.00 0.00 0.00 0.00 0.00 0.00 0.00 0.00 0.00 0.00 0.00 0.00 0.00 0.00 0.00 0.00 0.00 0.00 0.00 0.00 0.00 0.00 0.00 0.00 0.00 0.00 0.00 0.00 0.00 0.00 0.01 0.01 0.00 0.00 0.00 0.00 0.00 0.01 0.02
0.00 0.00 0.00 0.00 0.00 0.00 0.00 0.00 0.00 0.00 0.00 0.00 0.00 0.00 0.00 0.00 0.00 0.00 0.00 0.00 0.00 0.00 0.00 0.00 0.00 0.00 0.00 0.00 0.00 0.00 0.00 0.00 0.00 0.01 0.01 0.01 0.00 0.00 0.00 0.01 0.01 0.00 0.01
0.00 0.00 0.00 0.00 0.00 0.00 0.00 0.00 0.00 0.00 0.00 0.00 0.00 0.00 0.00 0.00 0.00 0.00 0.00 0.00 0.00 0.00 0.00 0.00 0.00 0.00 0.00 0.00 0.00 0.00 0.00 0.00 0.00 0.00 0.00 0.00 0.00 0.00 0.01 0.06 0.04 0.00 0.00
0.00 0.00 0.00 0.00 0.00 0.00 0.00 0.00 0.00 0.00 0.00 0.00 0.00 0.00 0.00 0.00 0.00 0.00 0.00 0.00 0.00 0.00 0.00 0.00 0.00 0.00 0.00 0.00 0.00 0.00 0.00 0.00 0.00 0.00 0.00 0.00 0.00 0.00 0.01 0.04 0.05 0.03 0.02
0.00 0.00 0.00 0.00 0.00 0.00 0.00 0.00 0.00 0.00 0.00 0.00 0.00 0.00 0.00 0.00 0.00 0.00 0.00 0.00 0.00 0.00 0.00 0.00 0.00 0.00 0.00 0.00 0.00 0.00 0.00 0.00 0.00 0.00 0.00 0.00 0.00 0.00 0.00 0.01 0.02 0.02 0.01
0.00 0.00 0.00 0.00 0.00 0.00 0.00 0.00 0.00 0.00 0.00 0.00 0.00 0.00 0.00 0.00 0.00 0.00 0.00 0.00 0.00 0.00 0.00 0.00 0.00 0.00 0.00 0.00 0.00 0.00 0.00 0.00 0.00 0.00 0.00 0.00 0.00 0.00 0.00 0.00 0.00 0.00 0.00
0.00 0.00 0.00 0.00 0.00 0.00 0.00 0.00 0.00 0.00 0.00 0.00 0.00 0.00 0.00 0.00 0.00 0.00 0.00 0.00 0.00 0.00 0.00 0.00 0.00 0.00 0.00 0.00 0.00 0.00 0.00 0.00 0.00 0.00 0.00 0.00 0.00 0.00 0.00 0.00 0.00 0.00 0.00
0.00 0.00 0.00 0.00 0.00 0.00 0.00 0.00 0.00 0.00 0.00 0.00 0.00 0.00 0.00 0.00 0.00 0.00 0.00 0.00 0.00 0.00 0.00 0.00 0.00 0.00 0.00 0.00 0.00 0.00 0.00 0.00 0.00 0.00 0.00 0.00 0.00 0.00 0.00 0.00 0.00 0.00 0.00
0.00 0.00 0.00 0.00 0.00 0.00 0.00 0.00 0.00 0.00 0.00 0.00 0.00 0.00 0.00 0.00 0.00 0.00 0.00 0.00 0.00 0.00 0.00 0.00 0.00 0.00 0.00 0.00 0.00 0.00 0.00 0.00 0.00 0.00 0.00 0.00 0.00 0.00 0.00 0.00 0.00 0.00 0.00
0.00 0.00 0.00 0.00 0.00 0.00 0.00 0.00 0.00 0.00 0.00 0.00 0.00 0.00 0.00 0.00 0.00 0.00 0.00 0.00 0.00 0.00 0.00 0.00 0.00 0.00 0.00 0.00 0.00 0.00 0.00 0.00 0.00 0.00 0.00 0.00 0.00 0.00 0.00 0.00 0.00 0.00 0.00
0.00 0.00 0.00 0.00 0.00 0.00 0.00 0.00 0.00 0.00 0.00 0.00 0.00 0.00 0.00 0.00 0.00 0.00 0.00 0.00 0.00 0.00 0.00 0.00 0.00 0.00 0.00 0.00 0.00 0.00 0.00 0.00 0.00 0.00 0.00 0.00 0.00 0.00 0.00 0.00 0.00 0.00 0.00
0.00 0.00 0.00 0.00 0.00 0.00 0.00 0.00 0.00 0.00 0.00 0.00 0.00 0.00 0.00 0.00 0.00 0.00 0.00 0.00 0.00 0.00 0.00 0.00 0.00 0.00 0.00 0.00 0.00 0.00 0.00 0.00 0.00 0.00 0.00 0.00 0.00 0.00 0.00 0.00 0.00 0.00 0.00
0.00 0.00 0.00 0.00 0.00 0.00 0.00 0.00 0.00 0.00 0.00 0.00 0.00 0.00 0.00 0.00 0.00 0.00 0.00 0.00 0.00 0.00 0.00 0.00 0.00 0.00 0.00 0.00 0.00 0.00 0.00 0.00 0.00 0.00 0.00 0.00 0.00 0.00 0.00 0.00 0.00 0.00 0.00
0.00 0.00 0.00 0.00 0.00 0.00 0.00 0.00 0.00 0.00 0.00 0.00 0.00 0.00 0.00 0.00 0.00 0.00 0.00 0.00 0.00 0.00 0.00 0.00 0.00 0.00 0.00 0.00 0.00 0.00 0.00 0.00 0.00 0.00 0.00 0.00 0.00 0.00 0.00 0.00 0.00 0.00 0.00
0.00 0.00 0.00 0.00 0.00 0.00 0.00 0.00 0.00 0.00 0.00 0.00 0.00 0.00 0.00 0.00 0.00 0.00 0.00 0.00 0.00 0.00 0.00 0.00 0.00 0.00 0.00 0.00 0.00 0.00 0.00 0.00 0.00 0.00 0.00 0.00 0.00 0.00 0.00 0.00 0.00 0.00 0.00
0.00 0.00 0.00 0.00 0.00 0.00 0.00 0.00 0.00 0.00 0.00 0.00 0.00 0.00 0.00 0.00 0.00 0.00 0.00 0.00 0.00 0.00 0.00 0.00 0.00 0.00 0.00 0.00 0.00 0.00 0.00 0.00 0.00 0.00 0.00 0.00 0.00 0.00 0.00 0.00 0.00 0.00 0.00
0.00 0.00 0.00 0.00 0.00 0.00 0.00 0.00 0.00 0.00 0.00 0.00 0.00 0.00 0.00 0.00 0.00 0.00 0.00 0.00 0.00 0.00 0.00 0.00 0.00 0.00 0.00 0.00 0.00 0.00 0.00 0.00 0.00 0.00 0.00 0.00 0.00 0.00 0.00 0.00 0.00 0.00 0.00
0.00 0.00 0.00 0.00 0.00 0.00 0.00 0.00 0.00 0.00 0.00 0.00 0.00 0.00 0.00 0.00 0.00 0.00 0.00 0.00 0.00 0.00 0.00 0.00 0.00 0.00 0.00 0.00 0.00 0.00 0.00 0.00 0.00 0.00 0.00 0.00 0.00 0.00 0.00 0.00 0.00 0.00 0.00
0.00 0.00 0.00 0.00 0.00 0.00 0.00 0.00 0.00 0.00 0.00 0.00 0.00 0.00 0.00 0.00 0.00 0.00 0.00 0.00 0.00 0.00 0.00 0.00 0.00 0.00 0.00 0.00 0.00 0.00 0.00 0.00 0.00 0.00 0.00 0.00 0.00 0.00 0.00 0.00 0.00 0.00 0.00
MSLP
1018.94 1018.76 1018.64 1018.39 1018.10 1017.89 1017.76 1017.54 1017.24 1016.87 1016.44 1015.98 1015.55 1015.15 1014.91 1014.64 1014.39 1014.18 1014.08 1013.99 1014.05 1014.18 1014.16 1014.24 1014.34 1014.32 1014.28 1014.15 1014.10 1013.97 1013.88 1013.75 1013.64 1013.50 1013.37 1013.22 1013.08 1012.97 1012.77 1012.56 1012.38 1012.46 1012.49
1019.03 1019.02 1018.82 1018.55 1018.33 1018.14 1017.95 1017.68 1017.41 1017.01 1016.65 1016.03 1015.72 1015.14 1014.86 1014.57 1014.33 1014.17 1014.02 1013.99 1013.99 1014.14 1014.24 1014.39 1014.45 1014.52 1014.43 1014.29 1014.15 1013.98 1013.79 1013.65 1013.54 1013.42 1013.29 1013.06 1012.88 1012.74 1012.57 1012.30 1012.12 1011.94 1011.88
1019.03 1019.03 1018.88 1018.69 1018.44 1018.28 1018.01 1017.68 1017.43 1017.14 1016.88 1016.12 1015.80 1015.30 1014.94 1014.62 1014.42 1014.27 1014.09 1014.01 1014.09 1014.30 1014.36 1014.54 1014.64 1014.70 1014.57 1014.51 1014.24 1014.02 1013.71 1013.60 1013.56 1013.42 1013.19 1012.99 1012.74 1012.44 1012.27 1012.05 1011.81 1011.64 1011.46
1019.01 1019.03 1018.98 1018.85 1018.60 1018.43 1018.16 1017.94 1017.84 1017.59 1017.26 1016.66 1016.10 1015.54 1015.20 1014.70 1014.38 1014.31 1014.11 1014.08 1014.32 1014.56 1014.71 1014.72 1014.78 1014.95 1014.85 1014.73 1014.39 1014.10 1013.81 1013.73 1013.63 1013.33 1012.98 1012.61 1012.22 1012.02 1011.77 1011.44 1011.16 1010.91 1010.71
1018.96 1019.00 1019.01 1018.86 1018.61 1018.54 1018.29 1018.12 1018.10 1018.00 1017.66 1017.11 1016.41 1015.90 1015.26 1014.82 1014.59 1014.24 1014.32 1014.26 1014.58 1014.76 1014.82 1014.94 1015.16 1015.22 1015.10 1014.97 1014.66 1014.39 1014.16 1013.94 1013.62 1013.23 1012.76 1012.32 1012.00 1011.70 1011.30 1010.80 1010.42 1009.99 1009.64
1018.81 1018.93 1018.90 1018.76 1018.59 1018.67 1018.49 1018.29 1018.23 1018.14 1017.79 1017.39 1016.66 1016.01 1015.35 1014.82 1014.66 1014.59 1014.52 1014.43 1014.56 1014.77 1014.88 1015.03 1015.33 1015.34 1015.35 1015.19 1015.00 1014.80 1014.50 1014.07 1013.62 1013.07 1012.54 1012.14 1011.85 1011.49 1010.98 1010.34 1009.56 1008.90 1008.32
1018.79 1018.82 1018.85 1018.70 1018.61 1018.65 1018.51 1018.25 1018.17 1018.23 1018.01 1017.43 1016.90 1016.10 1015.18 1014.74 1014.67 1014.63 1014.66 1014.69 1014.67 1014.62 1014.90 1015.17 1015.30 1015.49 1015.45 1015.35 1015.22 1015.06 1014.83 1014.32 1013.65 1013.06 1012.50 1012.12 1011.73 1011.27 1010.67 1009.82 1008.94 1008.04 1007.34
1018.68 1018.61 1018.67 1018.74 1018.58 1018.59 1018.54 1018.44 1018.31 1018.41 1018.27 1017.79 1017.60 1016.97 1016.38 1015.73 1015.23 1014.87 1014.69 1014.71 1014.81 1014.74 1014.83 1014.99 1015.28 1015.47 1015.51 1015.41 1015.36 1015.23 1015.13 1014.53 1013.75 1013.06 1012.54 1012.14 1011.77 1011.20 1010.16 1009.23 1008.04 1006.58 1006.34
1018.42 1018.46 1018.57 1018.63 1018.50 1018.47 1018.42 1018.34 1018.28 1018.38 1018.58 1018.14 1017.63 1017.74 1017.51 1017.33 1016.68 1015.40 1015.20 1015.11 1015.00 1014.78 1014.83 1014.84 1015.03 1015.23 1015.38 1015.36 1015.29 1015.37 1015.10 1014.65 1013.90 1013.33 1012.76 1012.34 1011.78 1011.09 1010.07 1009.01 1007.69 1005.84 1005.84
1018.11 1018.12 1018.26 1018.37 1018.40 1018.26 1018.33 1018.28 1018.11 1018.21 1018.29 1018.39 1017.92 1017.62 1017.79 1017.78 1017.51 1016.78 1015.91 1015.45 1015.25 1015.01 1014.96 1014.94 1014.83 1014.79 1015.15 1015.22 1015.21 1015.17 1015.00 1014.49 1013.98 1013.55 1013.00 1012.46 1011.97 1011.21 1010.42 1009.26 1008.15 1007.09 1006.47
1017.82 1017.75 1017.74 1018.06 1018.25 1018.17 1018.11 1018.05 1018.01 1018.07 1018.10 1018.19 1018.03 1017.96 1017.91 1017.64 1017.38 1017.36 1016.90 1016.28 1015.63 1015.31 1014.98 1014.82 1014.56 1014.63 1014.91 1015.10 1015.18 1015.19 1014.98 1014.62 1014.14 1013.68 1013.22 1012.72 1012.37 1011.74 1010.98 1009.96 1009.02 1008.16 1007.38
1017.83 1017.62 1017.29 1017.49 1017.65 1017.75 1017.90 1017.78 1017.75 1017.75 1017.75 1017.75 1017.71 1017.76 1017.78 1017.62 1017.22 1017.08 1016.79 1016.57 1016.25 1015.62 1014.99 1014.69 1014.55 1014.62 1014.89 1015.11 1015.04 1015.07 1014.94 1014.75 1014.27 1013.82 1013.47 1013.09 1012.76 1012.20 1011.59 1010.69 1009.89 1009.16 1008.41
1017.80 1017.50 1017.37 1017.23 1017.39 1017.23 1017.20 1017.28 1017.47 1017.41 1017.32 1017.34 1017.29 1017.36 1017.28 1017.15 1016.92 1016.83 1016.77 1016.57 1016.24 1015.68 1015.35 1014.54 1014.30 1014.31 1014.73 1014.87 1014.94 1014.91 1014.88 1014.70 1014.38 1014.04 1013.70 1013.42 1013.11 1012.59 1012.06 1011.44 1010.74 1010.03 1009.42
1017.60 1017.17 1017.12 1017.00 1016.86 1016.77 1016.69 1016.68 1016.95 1017.06 1016.98 1016.80 1016.74 1016.71 1016.79 1016.72 1016.71 1016.67 1016.70 1016.70 1016.32 1015.87 1015.58 1014.90 1014.39 1014.39 1014.34 1014.43 1014.62 1014.66 1014.68 1014.65 1014.44 1014.23 1013.96 1013.75 1013.44 1013.05 1012.55 1012.04 1011.49 1010.91 1010.39
1017.33 1017.10 1016.92 1016.79 1016.64 1016.44 1016.40 1016.41 1016.38 1016.43 1016.54 1016.44 1016.36 1016.29 1016.26 1016.20 1016.27 1016.45 1016.46 1016.51 1016.60 1016.26 1015.89 1015.07 1014.79 1014.47 1014.48 1014.40 1014.42 1014.47 1014.46 1014.40 1014.37 1014.28 1014.08 1013.90 1013.65 1013.33 1012.95 1012.61 1012.18 1011.63 1011.08
1017.10 1016.82 1016.68 1016.59 1016.55 1016.30 1016.13 1015.92 1015.90 1015.85 1015.86 1015.87 1015.92 1015.97 1015.83 1015.74 1015.74 1015.77 1015.94 1016.06 1016.20 1016.26 1016.02 1015.35 1015.02 1014.84 1014.68 1014.39 1014.29 1014.33 1014.22 1014.11 1014.16 1014.24 1014.09 1013.89 1013.67 1013.42 1013.17 1012.94 1012.66 1012.28 1011.76
1017.13 1017.00 1016.79 1016.45 1016.05 1015.95 1015.95 1015.83 1015.52 1015.34 1015.46 1015.34 1015.21 1015.32 1015.33 1015.26 1015.35 1015.37 1015.28 1015.42 1015.66 1015.81 1015.63 1015.12 1014.93 1014.75 1014.65 1014.36 1014.24 1014.20 1013.96 1014.12 1014.08 1014.15 1014.10 1013.94 1013.71 1013.50 1013.27 1013.10 1012.84 1012.54 1012.19
1017.06 1016.86 1016.57 1016.20 1015.89 1015.70 1015.41 1015.38 1015.41 1015.29 1015.11 1015.01 1014.88 1014.82 1014.75 1014.72 1014.77 1014.78 1014.89 1015.03 1015.02 1015.21 1015.52 1015.20 1014.92 1014.75 1014.56 1014.24 1014.11 1014.12 1013.92 1013.72 1013.83 1013.81 1013.91 1013.93 1013.75 1013.52 1013.37 1013.24 1013.12 1012.89 1012.58
1017.10 1016.86 1016.65 1016.33 1015.82 1015.39 1015.21 1015.03 1014.82 1014.68 1014.66 1014.58 1014.35 1014.26 1014.20 1014.26 1014.30 1014.37 1014.35 1014.50 1014.67 1014.63 1014.88 1015.03 1014.86 1014.66 1014.45 1014.15 1014.08 1013.96 1013.85 1013.79 1013.51 1013.47 1013.56 1013.64 1013.58 1013.47 1013.47 1013.45 1013.38 1013.22 1012.97
1016.80 1016.53 1016.31 1016.03 1015.81 1015.53 1015.15 1014.80 1014.46 1014.34 1014.12 1013.92 1013.89 1013.76 1013.59 1013.57 1013.72 1013.86 1013.86 1013.88 1013.96 1014.11 1014.34 1014.50 1014.56 1014.51 1014.40 1014.14 1014.12 1014.19 1014.08 1013.71 1013.47 1013.22 1013.25 1013.37 1013.52 1013.50 1013.47 1013.50 1013.48 1013.46 1013.31
1016.60 1016.28 1015.89 1015.62 1015.42 1015.24 1014.96 1014.78 1014.63 1014.47 1014.16 1013.78 1013.32 1013.07 1013.06 1012.99 1012.91 1012.96 1013.21 1013.40 1013.54 1013.60 1013.80 1014.14 1014.30 1014.29 1014.25 1014.24 1014.28 1013.91 1013.98 1013.86 1013.56 1013.22 1013.35 1013.35 1013.45 1013.53 1013.56 1013.37 1013.41 1013.37 1013.32
1016.40 1016.02 1015.70 1015.43 1014.98 1014.90 1014.41 1014.45 1014.49 1014.39 1014.18 1013.85 1013.26 1012.60 1012.32 1012.38 1012.46 1012.53 1012.56 1012.61 1012.84 1013.03 1013.27 1013.64 1013.68 1013.77 1013.69 1013.80 1013.73 1013.78 1013.92 1014.10 1014.12 1013.29 1013.42 1013.28 1013.02 1013.14 1013.02 1013.08 1013.01 1013.08 1013.18
1016.31 1016.04 1015.77 1015.40 1015.04 1014.84 1014.56 1014.26 1014.24 1014.18 1013.97 1013.56 1013.10 1012.56 1012.16 1011.95 1011.89 1011.98 1012.08 1012.22 1012.35 1012.47 1012.55 1012.78 1012.97 1013.01 1013.14 1013.12 1013.27 1013.40 1013.59 1013.90 1013.90 1013.34 1013.49 1013.34 1012.86 1013.03 1012.63 1012.48 1012.51 1012.74 1012.86
1016.22 1015.94 1015.56 1015.13 1014.86 1014.58 1014.28 1014.02 1013.97 1013.92 1013.58 1013.21 1012.90 1012.23 1011.83 1011.57 1011.54 1011.61 1011.67 1011.92 1011.90 1011.88 1012.02 1012.14 1012.19 1012.00 1012.16 1012.32 1012.53 1012.68 1013.00 1013.37 1013.40 1013.15 1013.21 1013.55 1012.96 1012.87 1012.42 1012.34 1012.23 1012.44 1012.65
1015.87 1015.69 1015.34 1014.90 1014.63 1014.17 1013.76 1013.64 1013.62 1013.69 1013.35 1012.85 1012.19 1012.16 1011.63 1011.19 1011.25 1011.34 1011.36 1011.48 1011.53 1011.53 1011.26 1011.18 1011.26 1011.24 1011.42 1011.59 1011.93 1012.47 1013.03 1013.48 1013.54 1013.18 1012.95 1013.14 1012.90 1012.89 1012.65 1012.42 1012.28 1012.10 1012.32
1015.79 1015.34 1014.97 1014.54 1014.16 1013.87 1013.54 1013.22 1013.40 1013.48 1013.34 1012.60 1012.26 1011.80 1011.81 1011.06 1010.82 1011.20 1011.38 1011.47 1011.32 1010.96 1010.96 1010.75 1010.77 1010.89 1010.96 1011.24 1011.31 1011.64 1012.37 1013.12 1013.34 1013.15 1012.41 1012.89 1012.87 1013.11 1013.17 1012.57 1012.38 1012.28 1012.32
Thickness
5690 5689 5687 5686 5685 5682 5680 5678 5677 5675 5675 5674 5673 5673 5670 5668 5665 5662 5660 5658 5655 5652 5649 5647 5644 5642 5642 5643 5642 5644 5645 5646 5646 5646 5646 5645 5644 5643 5643 5644 5645 5645 5646
5684 5681 5680 5678 5676 5673 5670 5669 5667 5665 5664 5664 5663 5663 5660 5658 5655 5652 5649 5647 5646 5643 5640 5637 5635 5633 5633 5634 5635 5636 5638 5639 5639 5639 5639 5640 5639 5638 5638 5639 5639 5639 5640
5677 5674 5672 5669 5667 5664 5661 5659 5657 5655 5653 5654 5653 5652 5650 5648 5644 5640 5637 5635 5635 5632 5631 5628 5626 5626 5627 5626 5628 5629 5631 5631 5631 5632 5633 5634 5634 5635 5634 5633 5633 5634 5634
5670 5667 5663 5660 5657 5653 5651 5648 5645 5642 5640 5642 5642 5641 5639 5638 5634 5626 5622 5622 5622 5622 5620 5620 5619 5617 5618 5618 5621 5622 5624 5625 5625 5627 5629 5630 5632 5632 5631 5631 5630 5631 5632
5662 5659 5655 5651 5647 5643 5641 5638 5634 5631 5629 5630 5632 5631 5631 5628 5622 5613 5603 5607 5610 5612 5612 5611 5609 5609 5610 5611 5613 5615 5617 5619 5621 5623 5625 5627 5628 5627 5628 5630 5630 5631 5632
5655 5650 5646 5641 5637 5633 5630 5628 5624 5621 5621 5620 5623 5623 5623 5621 5615 5606 5601 5602 5604 5605 5605 5604 5602 5603 5604 5606 5607 5608 5611 5613 5616 5619 5621 5623 5623 5623 5624 5627 5629 5631 5634
5647 5642 5636 5632 5628 5624 5622 5621 5617 5613 5611 5613 5613 5617 5618 5616 5611 5606 5603 5601 5601 5601 5600 5599 5598 5598 5599 5600 5601 5603 5603 5606 5610 5613 5616 5617 5618 5618 5621 5623 5627 5631 5633
5638 5633 5627 5621 5618 5614 5612 5610 5608 5604 5602 5603 5601 5602 5602 5604 5603 5603 5602 5601 5598 5598 5598 5597 5595 5595 5595 5596 5596 5596 5596 5599 5604 5608 5611 5612 5612 5615 5620 5622 5629 5637 5634
5631 5624 5616 5608 5603 5602 5601 5601 5599 5597 5592 5594 5597 5592 5585 5583 5587 5598 5598 5597 5597 5598 5597 5597 5596 5594 5593 5593 5592 5592 5592 5594 5599 5602 5605 5606 5609 5612 5616 5620 5627 5638 5632
5625 5618 5609 5598 5591 5591 5591 5592 5594 5591 5588 5585 5588 5588 5583 5581 5576 5579 5590 5594 5595 5596 5595 5594 5595 5594 5591 5590 5589 5589 5589 5591 5594 5596 5598 5600 5603 5607 5610 5615 5620 5623 5622
5619 5613 5604 5594 5587 5584 5585 5587 5586 5584 5583 5581 5581 5579 5578 5578 5579 5576 5573 5582 5589 5590 5593 5593 5594 5593 5590 5588 5587 5587 5587 5588 5590 5592 5594 5596 5597 5600 5602 5606 5609 5612 5613
5612 5607 5602 5593 5587 5583 5581 5581 5581 5580 5580 5579 5578 5576 5574 5572 5576 5576 5579 5577 5577 5584 5589 5591 5592 5590 5587 5585 5585 5584 5584 5584 5587 5589 5590 5591 5592 5594 5596 5598 5600 5602 5604
5604 5601 5596 5593 5587 5584 5581 5578 5576 5576 5577 5577 5576 5573 5572 5572 5572 5572 5573 5571 5576 5581 5580 5587 5589 5588 5583 5582 5581 5581 5581 5580 5582 5583 5585 5585 5585 5587 5589 5591 5593 5595 5596
5598 5597 5593 5589 5587 5583 5581 5578 5574 5573 5574 5574 5574 5573 5570 5569 5568 5568 5566 5566 5569 5573 5572 5577 5582 5582 5581 5579 5577 5576 5576 5575 5576 5576 5578 5578 5578 5579 5581 5582 5584 5586 5587
5594 5591 5587 5585 5582 5582 5579 5577 5575 5573 5570 5570 5569 5569 5568 5567 5565 5562 5561 5559 5559 5563 5562 5568 5572 5574 5573 5572 5571 5571 5571 5570 5570 5569 5570 5570 5570 5571 5573 5573 5574 5576 5579
5587 5585 5583 5580 5577 5577 5577 5578 5575 5573 5571 5567 5565 5563 5563 5563 5562 5560 5558 5556 5554 5554 5557 5556 5560 5561 5562 5565 5564 5563 5564 5564 5563 5563 5562 5563 5563 5563 5563 5565 5565 5567 5570
5578 5575 5574 5574 5574 5572 5570 5569 5571 5570 5567 5565 5562 5560 5559 5558 5557 5555 5555 5553 5551 5550 5554 5553 5552 5553 5554 5556 5556 5556 5556 5556 5555 5554 5554 5554 5554 5555 5556 5556 5558 5559 5561
5567 5565 5564 5565 5566 5565 5565 5563 5561 5560 5561 5560 5558 5556 5555 5553 5553 5551 5549 5548 5547 5543 5541 5545 5543 5544 5546 5547 5549 5548 5549 5548 5547 5546 5545 5544 5544 5545 5546 5547 5547 5548 5550
5555 5553 5553 5552 5554 5556 5556 5556 5556 5555 5553 5552 5553 5552 5551 5548 5546 5545 5544 5542 5540 5539 5536 5535 5535 5535 5536 5537 5537 5538 5539 5539 5539 5538 5537 5535 5535 5535 5534 5534 5534 5535 5536
5546 5545 5544 5544 5542 5542 5543 5544 5547 5546 5546 5546 5544 5544 5543 5542 5540 5537 5536 5536 5534 5532 5528 5527 5526 5523 5523 5526 5527 5525 5524 5528 5528 5529 5528 5526 5524 5524 5523 5522 5522 5522 5522
5535 5534 5535 5535 5534 5533 5534 5531 5531 5531 5534 5536 5538 5537 5535 5534 5533 5532 5529 5527 5526 5524 5521 5517 5515 5515 5513 5512 5513 5516 5514 5514 5517 5519 5517 5516 5516 5514 5512 5511 5510 5510 5509
5521 5522 5522 5523 5524 5522 5526 5522 5520 5518 5519 5521 5526 5530 5530 5528 5524 5522 5522 5521 5517 5515 5512 5507 5507 5505 5505 5505 5505 5504 5502 5500 5500 5506 5504 5503 5505 5502 5502 5501 5499 5497 5496
5506 5506 5505 5506 5507 5506 5507 5509 5507 5505 5505 5508 5511 5516 5518 5518 5517 5514 5511 5509 5508 5506 5505 5501 5499 5497 5497 5497 5496 5493 5490 5488 5488 5491 5489 5489 5492 5489 5491 5490 5488 5486 5483
5488 5489 5490 5492 5492 5492 5493 5494 5493 5491 5492 5494 5495 5501 5504 5505 5505 5503 5501 5497 5496 5494 5493 5492 5492 5492 5489 5487 5485 5482 5480 5477 5477 5478 5476 5472 5476 5475 5478 5476 5474 5471 5467
5472 5471 5471 5473 5474 5475 5478 5477 5477 5474 5476 5479 5484 5481 5486 5490 5489 5489 5488 5486 5483 5481 5483 5483 5480 5480 5479 5477 5474 5469 5463 5459 5459 5462 5462 5461 5460 5460 5459 5458 5456 5454 5451
5451 5452 5454 5455 5456 5457 5458 5460 5457 5455 5455 5461 5461 5465 5464 5470 5473 5470 5467 5467 5467 5468 5469 5469 5468 5466 5465 5461 5460 5458 5452 5447 5442 5442 5448 5443 5440 5438 5434 5437 5437 5434 5431